Flag for Canada Weather past 2 weeks in Arctic Bay, Nunavut Territory, Canada

Now
-38 °F

Clear.


Feels Like: -64 °F
Forecast: -37 / -31 °F
Wind: 10 mph from Southeast

Location: Pond Inlet

Current Time: Jan 26, 2015 at 2:31:17 AM

Latest Report: Jan 26, 2015 at 2:01 AM


Visibility: 2 mi

Pressure: 29.74 "Hg

Humidity: 65%

Dew point: -45 °F

Location of Arctic BayLocation

Historic Weather in Arctic Bay — Graph

°F

Arctic Bay temperature yesterday

Maximum temperature yesterday: -35 °F (at 9:00 PM)
Minimum temperature yesterday: -44 °F (at 2:00 AM)
Average temperature yesterday: -39 °F

Past Weeks' High & Low Weather Summary

 TemperatureHumidityPressure
High-13 °F (Jan 11, 7:00 PM)83% (Jan 11, 5:53 PM)30.06 "Hg (Jan 11, 5:53 PM)
Low-44 °F (Jan 23, 5:00 PM)57% (Jan 24, 8:02 AM)29.15 "Hg (Jan 19, 12:57 AM)
Average-30 °F68%29.70 "Hg
* Reported Jan 11 1:00 AM — Jan 26 1:00 AM, Arctic Bay, Weather by CustomWeather, © 2014

Note: Actual official high and low records may vary slightly from our data, if they occured in-between our weather recording intervals... More about our weather records

Advertising

Arctic Bay weather history for previous 24 hours

 ConditionsComfort  
Time TempWeatherWind HumidityBarometerVisibility
1:00 AM
Jan 26
-38 °FClear.8 mph58%29.75 "Hg9 mi
12:03 AM-36 °FSunny.9 mph59%29.76 "Hg6 mi
12:00 AM-36 °FSunny.9 mph59%29.76 "Hg3 mi
11:00 PM
Jan 25
-36 °FClear.6 mph59%29.76 "Hg6 mi
10:03 PM-35 °FClear.9 mph59%29.76 "Hg9 mi
9:00 PM-35 °FClear.9 mph66%29.77 "Hg9 mi
8:00 PM-36 °FClear.8 mph66%29.76 "Hg4 mi
7:00 PM-36 °FClear.9 mph66%29.76 "Hg9 mi
6:00 PM-38 °FSunny.7 mph65%29.76 "Hg3 mi
5:59 PM-38 °FSunny.7 mph65%29.76 "Hg3 mi
5:00 PM-40 °FSunny.7 mph58%29.75 "Hg7 mi
4:00 PM-38 °FSunny.6 mph58%29.72 "Hg9 mi
3:04 PM-40 °FSunny.3 mph65%29.71 "Hg1 mi
3:02 PM-40 °FSunny.3 mph65%29.71 "Hg2 mi
2:00 PM-40 °FSunny.6 mph65%29.71 "Hg8 mi
1:00 PM-40 °FSunny.9 mph58%29.70 "Hg9 mi
12:00 PM-40 °FSunny.5 mph58%29.69 "Hg9 mi
11:00 AM-40 °FSunny.3 mph65%29.67 "Hg9 mi
10:00 AM-38 °FSunny.6 mph58%29.66 "Hg9 mi
9:00 AM-40 °FSunny.7 mph58%29.65 "Hg9 mi
8:00 AM-38 °FSunny.8 mph58%29.65 "Hg9 mi
7:00 AM-38 °FSunny.6 mph58%29.66 "Hg9 mi
6:01 AM-40 °FSunny.5 mph65%29.66 "Hg5 mi
5:04 AM-38 °FClear.5 mph58%29.67 "Hg4 mi
4:01 AM-38 °FClear.7 mph65%29.67 "Hg9 mi
4:00 AM-38 °FClear.7 mph65%29.67 "Hg5 mi
3:00 AM-40 °FClear.5 mph58%29.68 "Hg9 mi
2:00 AM-44 °FClear.5 mph64%29.67 "Hg9 mi
Weather by CustomWeather, © 2014

See weather overviewHow to use our weather pages